Skip Page Navigation
NASA JPL Caltech
NASA Logo - Jet Propulsion Laboratory + View the NASA Portal
+ Center for Near-Earth Object Studies
JPL Home Earth Solar System Stars & Galaxies Technology
JPL Solar System Dynamics
BODIES ORBITS EPHEMERIDES TOOLS PHYSICAL DATA DISCOVERY FAQ SITE MAP
JPL Small-Body Database Browser
Search: [ help ]  
3200 Phaethon (1983 TB)
Classification: Apollo [NEO, PHA]          SPK-ID: 2003200
Ephemeris | Orbit Diagram | Orbital Elements | Mission Design | Physical Parameters | Discovery Circumstances | Close-Approach Data ]

[ hide orbit diagram ]

For accurate long-term ephemerides, please instead use our Horizons system.This orbit viewer was implemented using two-body methods, and hence should not be used for determining accurate long-term trajectories (over several years or decades) or planetary encounter circumstances.


[ revert to old Java-based viewer ]

Orbital Elements at Epoch 2459000.5 (2020-May-31.0) TDB
Reference: JPL 712 (heliocentric ecliptic J2000)
 Element Value Uncertainty (1-sigma)   Units 
e .8898311206936256 1.3405e-09  
a 1.271367884101982 7.1837e-10 au
q .1400651749776319 1.6686e-09 au
i 22.25951171307781 2.5659e-07 deg
node 265.2176958865816 8.935e-07 deg
peri 322.1867098330639 8.868e-07 deg
M 228.9572432413808 2.8797e-07 deg
tp 2459191.096886421324
(2020-Dec-07.59688642)
5.708e-07 TDB
period 523.6068044421955
1.43
4.4378e-07
1.215e-09
d
yr
n .6875388114627582 5.8272e-10 deg/d
Q 2.402670593226332 1.3576e-09 au

Additional Model Parameters
 Parameter Value Uncertainty (1-sigma) 
A2 [EST] -5.444804809526769E-15 5.919E-16
ALN [SET] 1. n/a
NK [SET] 0. n/a
NM [SET] 2. n/a
NN [SET] 0. n/a
R0 [SET] 1. n/a
  Orbit Determination Parameters
   # obs. used (total)      4362  
   # delay obs. used      8  
   # Doppler obs. used      0  
   data-arc span      13158 days (36.02 yr)  
   first obs. used      1983-10-27  
   last obs. used      2019-11-05  
   planetary ephem.      DE431  
   SB-pert. ephem.      SB431-N16  
   condition code      0  
   norm. resid. RMS      .30124  
   source      ORB  
   producer      Davide Farnocchia  
   solution date      2019-Nov-07 16:22:32  

Additional Information
 Earth MOID = .0194361 au 
 Jupiter MOID = 2.73739 au 
 T_jup = 4.510 
[ show covariance matrix ]

Ephemeris | Orbit Diagram | Orbital Elements | Mission Design | Physical Parameters | Discovery Circumstances | Close-Approach Data ]

Physical Parameter Table
Parameter Symbol Value Units Sigma Reference Notes
absolute magnitude H 14.3   n/a MPO502184  
diameter diameter 6.25 km 0.15 Taylor et al, "Arecibo Radar Observations of near-Earth asteroid (3200) Phaethon during the 2017 apparition", Planetary and Space Science. 10.1016/j.pss.2019.01.009 Delay-depth and 5% bandwidth variations suggest slightly oblong equatorial dimensions of 6.1 x 6.4 km. Thermophysical modeling by Hanus et al. (2016) found effective diameter of 5.1 +/- 0.2km.
rotation period rot_per 3.604 h n/a LCDB (Rev. 2019-August); Warner et al., 2009 Published Reference List:
[Meech, K.J.; Hainaut, O.R.; Buie, M.W. (1996) Abstracts of ACM 1996, 42.]
[Pravec, P.; Wolf, M.; Sarounova, L. (1998) Icarus 136, 124-153.]
[Krugly, Yu.N.; Bel'skaya, I.N.; Shevchenko, V.G.; et al. (2002) Icarus 158, 294-304.]
[Pravec, P.; Wolf, M.; Sarounova, L. (2004) http://www.asu.cas.cz/~ppravec/neo.htm]
[Pan, S.K-S.; Abe, S.; Kinos, D. (2012) ACM 2012, #6294.]
[Ansdell, M.; Meech, K.J.; Hainaut, O.; Buie, M.W.; et al. (2014) Astrophys. J. 793, A50.]
[Warner, B.D. (2015) Minor Planet Bull. 42, 115-127.]
[Hanus, J.; Delbo, M.; Vokrouhlicky, D.; Pravec, P.; et al. (2016). Astron. Astrophys. 586, A108.]
[Warner, B.D. (2017) Minor Planet Bull. 44, 98-107.]
[Hanus, J.; Vokrouhlicky, D.; Delbo, M.; Farnocchia, D.; et al. (2018) Astron. Astrophys. 620, L8.]
[Kim, M.-J.; Lee, H.-J.; Lee, S.-M.; Kim, D.-H; et al. (2018) Astron. Astrophys. 619, A123.]
[Schmidt, R.E. (2018) Minor Planet Bull. 45, 131.]
[Warner, B.D; Stephens, R.D. (2018) (3200 Phaethon). http://www.planetarysciences.org/PHP/CS3_Lightcurves.php]
geometric albedo albedo 0.1066   0.011 IRAS-A-FPA-3-RDR-IMPS-V6.0 IRAS observations used: 18
Tholen spectral type spec_T F   n/a EAR-A-5-DDR-TAXONOMY-V4.0 used 4 color indices
SMASSII spectral type spec_B B   n/a EAR-A-5-DDR-TAXONOMY-V4.0 based on a high-resolution spectrum by Xu et al. (1995) or Bus and Binzel (2002)

3200 Phaethon (1983 TB)          Discovered 1983-Oct-11 by IRAS
Reference: DISCOVERY.DBLast Updated: 2003-08-29

[ hide close-approach data ]
Close-Approach Data   ...sorted by Date/Time (TDB)
Date/Time (TDB) Time Uncertainty
(days_HH:MM)
Body Nominal Distance (au) Minimum Distance (au) Maximum Distance (au) V-relative (km/s) V-infinity (km/s) JD (TDB) Time Uncertainty (minutes) Semi-major axis (km) Semi-minor axis (km) range-LOV angle (deg) N-sigma BP Orbit Ref. Reference Modified
1907-Oct-08 15:18 00:01 Earth 0.359485865040185 0.359482771238349 0.359488960107421 35.3425028782782 35.3422931608494 2417857.137305873 1.42242438874659 1074.69571400009 0.355318575536226 -81.7450690087796 146760945.250072 T 712 CATAB v2.0f-lin.ifort 2020-Jan-31 21:52:02 2020-Jan-31 21:52
1908-Dec-22 12:34 < 00:01 Earth 0.30373618585063 0.303714794442744 0.303757577260725 25.9285250628727 25.9281867326128 2418298.023641759 0.52326427529654 1067.48488709153 0.845777573481057 -2.18320268368133 2121848.3581647 T 712 CATAB v2.0f-lin.ifort 2020-Jan-31 21:52:02 2020-Jan-31 21:52
1911-Nov-24 22:48 00:01 Earth 0.431781021148116 0.431762762875922 0.431799279420629 48.0704735339571 48.0703451617562 2419365.450121557 1.34467968658594 910.658607568579 0.595224185895277 1.18266514024027 2192670.67272317 T 712 CATAB v2.0f-lin.ifort 2020-Jan-31 21:52:02 2020-Jan-31 21:52
1917-Oct-17 14:45 00:01 Earth 0.434239833194298 0.434230674564799 0.434248992239223 41.7868748856835 41.7867280459566 2421519.114420451 1.1730366405347 810.646731793617 0.341707160906136 -55.7092810574888 153418403.735475 T 712 CATAB v2.0f-lin.ifort 2020-Jan-31 21:52:02 2020-Jan-31 21:52
1921-Dec-03 23:05 < 00:01 Earth 0.2376103298514 0.237595431458732 0.237625228248295 41.2597470686213 41.2594752858588 2423027.461782887 0.989493895794398 744.601235843092 0.654101280799249 -3.85005586083386 3591879.91626144 T 712 CATAB v2.0f-lin.ifort 2020-Jan-31 21:52:02 2020-Jan-31 21:52
1924-Oct-21 05:22 < 00:01 Venus 0.149380224343462 0.14936308339687 0.149397365465424 33.8775965459689 33.8771674385757 2424079.723475614 0.720451250060788 892.045677838736 0.634658756521022 -16.6245622431757 10219826.2144148 T 712 CATAB v2.0f-lin.ifort 2020-Jan-31 21:52:02 2020-Jan-31 21:52
1929-Feb-09 04:39 < 00:01 Venus 0.119666938349426 0.119652508981891 0.119681367930103 35.2063307927566 35.2058153538706 2425651.693807838 0.652048234027563 762.340426614332 0.621971190898438 -19.28973616198 9605300.85724972 T 712 CATAB v2.0f-lin.ifort 2020-Jan-31 21:52:02 2020-Jan-31 21:52
1930-Sep-25 13:31 < 00:01 Earth 0.447768594282096 0.447761648785324 0.44777553995859 25.8827721752743 25.8825422695067 2426245.063158384 0.516612571970106 565.740990058672 0.392536637870391 52.2504661217085 135400838.726495 T 712 CATAB v2.0f-lin.ifort 2020-Jan-31 21:52:02 2020-Jan-31 21:52
1931-Dec-13 12:01 < 00:01 Earth 0.0384035835011724 0.0383961916817856 0.0384109768782542 34.5974553498267 34.5954499127713 2426689.000618698 0.608446628420507 533.531545823336 0.721244688972784 -46.2956965616811 5736639.05770374 T 712 CATAB v2.0f-lin.ifort 2020-Jan-31 21:52:02 2020-Jan-31 21:52
1933-May-31 03:27 < 00:01 Venus 0.0898038063252678 0.0897924226536085 0.0898151903021761 36.5885013042111 36.587840407634 2427223.643670756 0.560728101631806 624.827465129467 0.608692168165979 -24.6985065442951 9281244.22247611 T 712 CATAB v2.0f-lin.ifort 2020-Jan-31 21:52:02 2020-Jan-31 21:52
1937-Sep-18 23:20 < 00:01 Venus 0.0604044385464807 0.0603967924020623 0.0604120852310378 38.1027097314979 38.1017662147609 2428795.472312887 0.445773491857561 475.940265989647 0.595223346391935 -36.7603926278376 9112679.91619361 T 712 CATAB v2.0f-lin.ifort 2020-Jan-31 21:52:02 2020-Jan-31 21:52
1940-Oct-02 22:52 < 00:01 Earth 0.36351938896784 0.363518355462079 0.363520422568138 31.7462963950448 31.7460655113363 2429905.452788417 0.368320994089138 296.840648648732 0.372729987614795 80.001283457909 141569688.272942 T 712 CATAB v2.0f-lin.ifort 2020-Jan-31 21:52:02 2020-Jan-31 21:52
1941-Dec-20 07:41 < 00:01 Earth 0.188493506680159 0.188488232134759 0.188498781226233 28.6411616199343 28.6406680722975 2430348.819946084 0.212060999522373 263.627326356412 0.796741355183447 3.88409528016213 2445543.16976543 T 712 CATAB v2.0f-lin.ifort 2020-Jan-31 21:52:02 2020-Jan-31 21:52
1942-Jan-07 23:32 < 00:01 Venus 0.0425266636787326 0.0425232641997146 0.0425300638751193 39.3209751554934 39.3196765102623 2430367.480661212 0.311640480986632 323.428056056637 0.58462449477656 -58.3865321412354 9273765.82100632 T 712 CATAB v2.0f-lin.ifort 2020-Jan-31 21:52:02 2020-Jan-31 21:52
1946-Apr-29 03:28 < 00:01 Venus 0.0361634901994835 0.0361633893110393 0.0361635915922131 40.3334358243414 40.3319470070515 2431939.644561986 0.210946384014321 214.415398147212 0.575929412598033 -88.6608035153508 9382234.89455185 T 712 CATAB v2.0f-lin.ifort 2020-Jan-31 21:52:02 2020-Jan-31 21:52
1950-Aug-18 06:58 < 00:01 Venus 0.0421802954515116 0.0421784633055909 0.0421821278343031 41.375852005089 41.374607722831 2433511.790053946 0.182873074568491 182.192826419533 0.566888315376821 59.902139486552 9607142.71069518 T 712 CATAB v2.0f-lin.ifort 2020-Jan-31 21:52:02 2020-Jan-31 21:52
1950-Oct-13 15:56 < 00:01 Earth 0.392368348462141 0.392367180743138 0.392369516198652 38.7815876166288 38.7814125135482 2433568.163855316 0.196919818380871 143.107755376362 0.356255457843462 -65.9906412604521 147174444.558133 T 712 CATAB v2.0f-lin.ifort 2020-Jan-31 21:52:02 2020-Jan-31 21:52
